TELSTAR 18V

Last updated on Fri Oct 04 2024 00:02:42 GMT+0000 (Coordinated Universal Time)

1 43611U 18069A 24276.22549635 -.00000294 00000+0 00000+0 0 9990 2 43611 0.0234 194.2256 0002044 356.3356 40.0534 1.00269375 22368
UTC large
Height (km)
Speed (km/s)
/
Latitude / Longitude
Inclination (degrees)
Orbital Period (minutes)
Azimuth
Elevation
Range (km)
Doppler Factor

Next 0 passes for location: London (51.5072 / 0.1276)

Sorry there are no passes over London.